Regional Weather Roundup
Issued by NWS Boston, MA

Home | Current Version | Previous Version | Text Only | Print | Product List | Glossary On
Versions: 1 2 3 4 5 6 7 8 9 10 11 12 13 14 15 16 17 18 19 20 21 22 23 24 25 26 27
000
ASUS41 KBOX 281910
RWRBOX

REGIONAL WEATHER ROUNDUP
NATIONAL WEATHER SERVICE TAUNTON MA
300 PM EDT SAT MAY 28 2016

NOTE:  "FAIR" INDICATES FEW OR NO CLOUDS BELOW 12,000 FEET WITH NO
SIGNIFICANT WEATHER AND/OR OBSTRUCTIONS TO VISIBILITY.  THE FOLLOWING
OBSERVATION LOCATIONS DO NOT REPORT PRESENT WEATHER...PROVINCETOWN...
SMITHFIELD...BLOCK ISLAND...KEENE...AND OXFORD.

MAZALL-282000-
EASTERN MASSACHUSETTS

CITY           SKY/WX    TMP DP  RH WIND       PRES   REMARKS
BOSTON         PTSUNNY   82  64  54 E12       30.03F
BEVERLY        MOSUNNY   81  66  60 SE15      30.03F
LAWRENCE       MOSUNNY   92  61  35 CALM      30.04F HX  92
BEDFORD        PTSUNNY   93  63  36 W9        30.02F HX  94
BLUE HILL        N/A     90  62  39 SW10G18   30.06F HX  90
NORWOOD        SUNNY     91  64  40 W9        30.03F HX  92
MARSHFIELD     MOSUNNY   91  66  43 SW9G17    30.04S HX  94
PLYMOUTH       SUNNY     87  67  51 S10       30.07S HX  90
TAUNTON        SUNNY     90  66  45 SW10G17   30.06S HX  92
NEW BEDFORD    SUNNY     84  66  54 SW13G22   30.07F
$$

MAZALL-282000-
CAPE COD AND THE ISLANDS

CITY           SKY/WX    TMP DP  RH WIND       PRES   REMARKS
FALMOUTH       SUNNY     75  63  64 SW16      30.10S
HYANNIS        MOSUNNY   77  62  59 SW21G26   30.07F
CHATHAM        MOSUNNY   71  61  70 SW12G22   30.11S
PROVINCETOWN   SUNNY     78  63  59 SW15G21   30.08S
NANTUCKET      SUNNY     67  59  75 SW18G26   30.13S
MARTHAS VNYRD  SUNNY     72  60  66 SW13      30.11S
$$

MAZALL-282000-
CENTRAL AND WESTERN MASSACHUSETTS

CITY           SKY/WX    TMP DP  RH WIND       PRES   REMARKS
WORCESTER      SUNNY     89  57  33 SW13      30.10
FITCHBURG      MOSUNNY   92  55  28 NW7       30.05F HX  90
ORANGE         MOSUNNY   92  58  31 W6        30.05F HX  91
SPRINGFIELD    PTSUNNY   94  65  38 SW10      30.04F HX  95
WESTFIELD      SUNNY     91  67  44 S12       30.05F HX  94
NORTH ADAMS    SUNNY     88  59  37 VRB5      30.08F
PITTSFIELD     MOSUNNY   88  58  36 NW9       30.10F
$$

RIZALL-282000-
RHODE ISLAND

CITY           SKY/WX    TMP DP  RH WIND       PRES   REMARKS
PROVIDENCE     PTSUNNY   84  64  50 SE10      30.07F
NEWPORT        SUNNY     75  62  64 S12G18    30.10S
BLOCK ISLAND   SUNNY     67  59  75 SW21G29   30.13S
SMITHFIELD     PTSUNNY  N/A N/A N/A SE8       30.06S
WESTERLY       SUNNY     78  60  53 SW8       30.11F
$$

CTZALL-282000-
CONNECTICUT

CITY           SKY/WX    TMP DP  RH WIND       PRES   REMARKS
BRADLEY INTL   PTSUNNY   89  68  49 SE9       30.04F HX  93
HARTFORD       PTSUNNY   93  68  43 S12G20    30.04F HX  97
BRIDGEPORT     SUNNY     83  66  56 S12       30.08F
DANBURY        MOSUNNY   89  64  43 W6        30.09F HX  90
GROTON         SUNNY     72  64  76 S7        30.10F
NEW HAVEN      MOSUNNY   81  67  62 S9        30.09F
CHESTER        FAIR      84  66  54 S9G15     30.10F
MERIDEN        SUNNY     90  67  46 S12       30.07F HX  93
WILLIMANTIC    PTSUNNY   92  65  40 MISG      30.06F HX  94
OXFORD         PTSUNNY   88  70  55 SW9       30.13S HX  92
$$

MEZ002-015-021-024-NHZ003-005-008-011-012-014-VTZ005-008-282000-
NORTHERN NEW ENGLAND

CITY           SKY/WX    TMP DP  RH WIND       PRES   REMARKS
PORTLAND ME    PTSUNNY   84  64  50 S10       30.03F
BANGOR ME      PTSUNNY   87  64  46 NW6       30.06R
CONCORD NH     MOSUNNY   92  60  34 VRB5      30.03F HX  91
MANCHESTER NH  PTSUNNY   92  59  33 VRB6      30.02F HX  91
NASHUA NH      PTSUNNY   93  61  34 VRB6        N/A  HX  93
PORTSMOUTH NH  PTSUNNY   87  67  52 SE10      30.02F
JAFFREY NH     MOSUNNY   88  59  37 CALM      30.09F
KEENE NH       MOSUNNY  N/A N/A N/A CALM      30.06F
BURLINGTON VT  PTSUNNY   89  61  38 NE6       30.06F
MT. WASHINGTON PTSUNNY   61  52  72 W13         N/A
$$

NYZ052-076-282000-
EASTERN NEW YORK

CITY           SKY/WX    TMP DP  RH WIND       PRES   REMARKS
ALBANY         PTSUNNY   92  61  35 NW3       30.06F HX  92
NEW YORK CITY  MOSUNNY   89  71  55 S16       30.08F HX  95
$$

ANZALL-282000-
MARINE OBSERVATIONS

STATION/POSITION TIME  TEMP    WIND        PRES    VSBY  WAVE
                       AIR SEA DIR/SP/G                  HT/PER
                 (UTC) (F)     (DEG/KT/KT) (MB)    (MI)  (FT/S)
BOSTON BUOY      1850   68 62  130/ 12/ 12 1017.4F         1/ 8
BUZZARDS BAY     1900   60     230/ 17/ 18 1020.0F
NANTUCKET SOUND  1850   61 58  240/ 17/ 21 1019.2F         2/ 3
MASS BAY-STELLWA 1804   63 58                N/A    1 7/8
ISLE OF SHOALS   1900   78     150/ 19/ 19 1016.8F
S OF BLOCK IS    1825      56                N/A           4/ 5
$$

......................KEY.........................
  SKY/WX - SKY CONDITION/PRESENT WEATHER
  TMP    - TEMPERATURE IN FAHRENHEIT
  DWPT   - DEWPOINT IN FAHRENHEIT
  RH     - RELATIVE HUMIDITY IN PERCENT
  WIND   - DIRECTION AND SPEED IN MPH
  PRES   - MEAN SEA LEVEL PRESSURE IN INCHES OF HG
  WCI    - WIND CHILL INDEX
  VSB    - VISIBILITY IN MILES
  HX     - HEAT INDEX
  TC     - TEMPERATURE IN CELSIUS
  VRB    - VARIABLE WIND DIRECTION
  N/A    - NOT AVAILABLE




USA.gov is the U.S. government's official web portal to all federal, state and local government web resources and services.